Вернуться в каталог

OSCAR 15

UOSAT 4

АктивенЛюбительское радиоSSO
NORAD 20438·PAYLOAD·🇬🇧 United Kingdom

Запущен Jan 22, 1990 с Guiana Space Centre

Loading…

Ближайшие Пролёты (ближайшие 24 часа)

TLE

СвежийSource: Space-Track

Эпоха: Sep 14, 2026, 15:42 UTC

1 20438U 90005C   26257.65470712  .00000026  00000-0  26640-4 0  9995
2 20438  98.7747 315.2950 0010901  89.6536  63.2915 14.31734713913029

Отслеживайте OSCAR 15 в реальном времени с AllMySat

Download on the App Store